Probability
9 8 9 8 5 3 3 3 3 2 3 3 1 1 0 0 1 1 1 0 0 0 1 1 2 1 0 0 0 0 0 1 3 3 2 1 0 1 1 1 0 0 0
7 8 10 9 5 3 3 3 3 2 2 1 1 1 1 0 0 0 0 0 0 1 1 2 2 1 0 0 0 0 1 2 3 2 1 0 0 0 1 0 0 0 0
5 5 8 9 7 4 4 4 3 2 1 0 1 1 1 0 0 0 0 0 0 1 2 2 2 1 0 0 0 0 1 2 3 2 0 0 0 1 1 1 1 0 1
3 3 5 8 8 7 6 4 2 1 1 1 1 1 0 0 0 0 0 0 0 1 1 2 1 0 0 0 0 0 0 1 2 2 1 0 0 1 2 3 2 2 2
3 4 7 10 11 10 8 5 4 3 3 3 3 3 2 1 1 0 0 0 1 1 1 0 0 0 0 0 1 1 1 1 1 1 1 0 1 1 2 3 3 3 3
5 7 10 14 14 11 9 8 7 6 5 6 7 6 4 2 2 1 0 0 1 1 0 0 0 0 0 1 2 3 2 2 1 1 0 1 2 2 2 2 3 3 3
6 8 11 14 14 12 11 10 10 9 7 7 9 8 6 4 3 1 0 0 1 1 1 1 1 1 1 2 3 4 4 2 1 0 0 1 2 2 2 2 2 3 3
4 6 10 12 12 12 12 10 9 9 7 7 8 8 6 5 3 1 0 0 1 1 2 2 3 3 3 3 4 5 5 3 1 0 0 1 2 3 4 3 2 3 3
3 5 8 9 9 11 11 9 8 7 7 6 7 7 6 5 3 1 0 1 1 1 1 2 3 4 4 4 5 6 6 4 1 0 0 0 2 3 5 4 3 3 3
2 4 7 7 7 8 9 8 7 7 7 6 6 6 5 5 3 2 1 1 2 1 1 1 2 2 3 4 5 6 5 4 1 0 0 1 2 3 4 4 4 3 3
2 5 7 7 7 7 7 7 7 7 7 6 5 5 4 3 2 2 2 2 3 3 2 1 1 1 2 3 5 5 4 3 2 1 0 1 3 5 5 4 3 3 3
6 7 8 8 8 8 8 6 5 5 5 5 5 6 4 2 1 2 3 4 4 3 2 2 1 1 1 4 5 5 4 3 3 1 1 2 5 6 6 3 2 2 2
10 9 10 10 10 11 9 6 4 5 5 6 8 9 5 3 2 2 3 3 3 2 2 3 3 2 3 5 6 5 5 4 2 1 1 3 5 6 6 4 1 1 1
12 11 11 14 16 17 14 11 8 8 8 9 12 10 6 4 4 3 3 2 1 1 2 3 4 4 5 5 5 5 6 4 2 1 3 5 6 7 7 5 2 1 0
14 14 15 18 23 23 20 16 13 12 11 10 11 9 6 4 5 5 4 3 1 1 3 4 5 4 4 4 4 4 5 4 2 3 5 7 7 8 9 7 5 2 1
16 17 18 20 23 25 21 16 14 14 12 9 8 8 6 4 5 5 4 3 2 1 3 4 4 2 1 2 3 4 4 3 2 3 6 7 7 7 8 9 7 5 4
17 20 21 19 20 22 20 15 12 12 10 8 7 8 7 6 5 4 4 3 2 2 3 3 2 1 1 2 3 4 4 3 3 5 7 9 8 7 8 9 9 7 6
19 23 24 20 20 22 21 17 13 10 8 7 7 7 8 8 6 4 3 3 3 3 3 3 3 2 2 2 3 4 4 4 4 6 8 9 9 8 9 10 10 9 8
22 26 27 24 23 22 21 20 16 11 8 7 7 7 7 7 6 5 4 3 3 2 3 3 3 3 2 1 1 3 5 5 5 5 7 8 8 9 9 10 11 10 9
27 28 28 27 26 24 20 19 17 12 8 7 8 9 8 7 6 5 4 3 2 2 3 3 3 3 2 1 1 2 5 5 5 6 8 8 8 9 10 9 9 8 7
30 31 29 28 28 25 21 19 18 14 11 9 10 12 13 10 8 7 5 3 2 3 6 6 5 4 4 4 3 3 4 4 4 7 10 11 11 10 9 8 7 7 7
30 30 29 28 28 26 23 20 18 16 15 13 13 16 16 13 10 9 8 6 6 8 9 9 7 6 6 6 5 4 4 4 5 6 10 13 13 12 11 8 7 8 9
27 27 28 29 29 27 24 20 18 18 17 17 19 20 18 16 13 12 12 12 11 13 13 11 9 8 7 6 6 6 6 7 6 6 8 12 15 15 12 9 9 11 12
25 26 30 33 33 30 24 19 17 17 17 19 21 22 21 21 19 16 15 15 15 16 16 15 12 10 8 8 8 7 8 9 9 7 8 10 12 14 12 10 11 14 16
26 28 32 35 36 31 23 17 16 16 16 18 21 22 23 23 21 17 15 15 15 16 17 17 15 13 11 10 10 9 9 10 10 8 6 6 8 10 11 11 13 15 17
28 29 32 36 37 33 23 16 15 15 14 16 19 22 23 23 20 17 15 14 14 15 17 17 16 14 13 12 12 10 9 10 10 7 5 4 6 8 9 11 13 15 16
Wind_Speed
10 11 12 12 12 12 12 12 12 11 11 11 10 10 10 10 10 10 10 10 10 10 10 9 8 8 8 8 7 7 7 7 8 8 7 8 7 6 6 7 6 6 9
13 12 12 12 12 12 12 12 11 11 10 10 10 9 10 10 10 9 9 9 9 9 9 8 8 7 7 7 6 6 7 7 8 8 8 7 7 6 6 6 5 6 9
14 13 12 12 13 12 11 11 11 10 10 10 9 9 9 9 9 9 8 8 9 8 8 7 7 7 7 7 6 6 6 7 7 8 8 5 6 6 7 7 8 9 9
14 12 12 13 13 12 11 11 10 10 10 10 9 9 9 9 9 9 8 8 8 8 7 7 6 6 6 6 6 5 5 6 7 8 5 5 5 8 7 7 8 8 8
14 13 14 14 13 12 11 10 9 10 11 10 10 10 10 9 9 8 8 8 7 7 7 6 6 5 6 5 5 5 5 5 6 6 3 4 5 8 8 8 8 8 7
15 15 15 15 14 12 11 10 10 11 11 11 10 9 9 9 8 8 8 7 7 7 6 6 5 5 5 5 5 5 5 5 6 4 2 4 5 9 9 8 9 8 8
15 15 15 15 14 13 12 11 10 11 12 11 10 9 9 8 8 8 8 7 6 6 6 5 5 4 4 4 4 4 5 6 5 3 3 3 6 10 10 9 9 9 8
15 15 14 15 14 13 12 11 11 11 10 10 10 9 9 8 7 7 7 6 6 6 5 5 4 4 3 4 4 4 5 6 4 4 4 4 8 10 9 9 9 9 8
14 14 13 12 12 13 12 11 11 10 10 9 9 8 8 8 7 7 7 6 6 6 5 4 4 4 3 4 4 5 6 6 5 2 4 4 9 10 10 10 10 9 9
11 12 12 12 11 11 10 11 11 10 9 9 8 8 8 7 7 7 7 6 6 6 5 4 4 4 4 5 5 6 6 5 3 1 2 5 10 10 10 10 10 10 9
8 8 9 10 10 10 10 11 10 10 9 8 7 8 7 4 5 5 6 7 7 6 5 5 5 5 5 5 6 7 5 3 2 2 3 8 10 10 10 9 9 9 9
9 8 6 7 8 8 7 8 6 6 7 5 5 6 4 3 3 4 7 8 7 5 5 5 6 6 5 4 5 6 3 4 3 3 4 10 11 10 10 9 9 8 8
9 8 7 7 6 6 5 5 3 3 4 5 5 4 3 3 2 3 3 4 4 4 3 4 5 4 4 2 2 3 4 3 2 3 6 10 10 11 10 10 9 9 8
9 8 7 7 6 5 5 3 3 2 3 3 4 3 3 2 1 2 1 2 2 2 2 2 2 3 2 1 2 1 2 1 2 2 5 9 9 9 9 10 9 9 8
9 8 8 7 6 4 3 1 3 2 3 4 4 2 3 2 2 2 1 1 0 1 1 0 1 1 1 1 1 1 1 0 2 3 4 9 9 8 8 9 9 9 8
8 8 8 7 7 4 3 1 2 2 2 3 3 4 2 2 2 2 1 1 0 1 1 1 1 1 1 1 1 1 1 1 2 3 4 6 8 8 8 9 9 9 9
8 7 7 7 7 4 3 2 2 2 3 3 3 4 2 2 2 1 1 1 1 1 1 1 1 1 1 2 2 2 1 1 2 2 3 3 5 7 8 9 9 9 9
8 7 5 6 8 5 3 2 2 2 3 2 3 3 3 2 2 1 1 1 1 1 1 1 0 1 1 0 1 2 2 1 2 2 2 3 3 4 6 9 8 8 8
8 7 6 5 6 6 4 2 2 2 2 2 2 3 3 2 1 1 1 1 1 1 1 1 1 0 1 0 1 2 3 3 3 3 3 3 3 3 3 7 9 8 8
9 7 6 6 6 5 4 2 2 2 2 2 2 2 3 2 1 0 1 1 1 0 0 1 1 0 1 1 1 1 2 2 2 2 3 3 3 4 4 4 5 6 8
10 8 7 6 6 4 3 3 3 2 2 2 2 3 3 2 2 1 0 0 0 0 0 0 0 1 1 0 0 0 1 2 2 2 2 2 3 3 3 3 3 3 3
10 9 8 7 6 5 4 3 3 3 2 2 2 3 2 2 2 1 0 0 0 0 1 0 0 1 1 0 0 1 0 0 0 1 2 3 3 3 3 3 3 3 3
11 10 8 7 6 6 6 4 3 2 1 2 2 2 1 1 1 1 1 0 0 0 1 1 1 1 1 1 0 1 0 0 0 0 1 1 2 2 2 2 2 2 2
11 11 9 8 7 6 5 5 5 4 3 3 3 3 3 2 2 1 1 0 0 0 0 1 0 1 1 1 1 1 0 0 1 0 1 1 2 2 1 1 1 1 2
11 12 10 9 7 6 5 5 4 4 3 3 3 3 3 2 2 1 2 1 1 0 0 1 1 1 1 1 1 1 1 1 1 1 0 0 0 1 1 1 1 1 1
11 11 11 10 8 7 7 6 4 4 3 3 3 3 2 2 2 2 2 1 1 0 0 0 0 0 1 2 2 2 1 1 1 1 1 1 1 0 1 1 1 2 1
Wind_Direction
110 117 120 118 115 115 113 113 112 111 110 111 112 111 111 111 111 112 115 115 118 120 120 119 123 124 121 117 120 126 129 134 133 133 138 140 141 143 139 142 147 127 125
117 119 121 119 119 118 116 116 117 116 115 115 117 119 118 118 119 119 120 120 121 123 124 124 125 124 123 125 130 136 143 146 147 152 153 149 151 150 142 138 130 122 130
118 121 120 118 119 119 119 118 118 118 118 117 118 121 121 122 123 124 125 124 126 129 130 130 129 127 125 127 130 142 153 160 167 176 177 164 152 149 138 129 127 132 135
118 119 118 119 119 120 119 118 119 121 122 119 117 119 121 122 123 125 126 127 130 132 135 135 133 133 135 138 144 157 168 177 184 196 198 171 152 149 149 143 140 140 140
114 116 118 121 121 121 119 117 119 125 128 124 120 119 122 122 125 125 125 127 129 131 134 135 139 140 144 152 160 176 189 202 210 219 218 151 137 151 153 153 149 148 147
113 116 121 123 124 123 120 117 112 119 126 124 121 120 122 122 124 127 128 130 132 133 134 136 141 146 156 167 181 197 211 226 233 221 196 146 140 157 159 157 153 155 157
116 118 124 126 127 126 123 119 116 113 118 120 119 118 122 123 123 126 129 131 133 133 133 138 143 148 161 180 204 217 230 240 235 212 162 146 147 159 161 160 159 161 166
117 120 125 129 130 130 127 125 122 120 120 121 120 121 124 127 128 132 136 138 136 135 134 139 145 152 176 196 216 234 245 257 238 208 168 144 149 160 166 167 166 169 174
121 125 133 139 138 136 133 131 129 125 124 125 126 127 126 129 135 141 145 145 142 141 141 144 156 170 189 214 229 241 250 256 268 233 156 140 155 164 172 173 173 176 180
121 129 138 143 144 147 142 142 139 136 136 138 138 139 138 143 149 150 151 151 150 150 154 161 179 188 200 219 230 242 254 265 253 206 137 142 154 163 170 172 175 180 186
121 128 134 137 141 143 142 144 150 147 148 149 151 154 159 165 159 158 142 147 158 161 166 178 195 202 210 219 230 238 245 242 202 160 128 138 152 160 167 170 177 180 186
135 127 123 127 130 133 128 136 152 154 154 164 154 161 178 161 139 128 133 151 160 165 176 190 203 210 220 217 214 220 229 226 198 157 139 150 155 159 164 168 173 181 187
133 124 124 119 118 116 114 131 140 132 142 158 149 158 135 115 123 122 142 150 165 175 193 189 205 216 218 208 191 196 208 210 174 138 139 152 157 163 169 173 178 184 189
128 126 118 111 104 100 115 127 130 132 146 135 132 136 117 117 109 110 112 128 157 169 179 182 199 197 214 208 199 204 207 178 131 115 136 150 159 165 171 176 183 186 190
128 127 116 112 102 92 91 122 127 119 123 122 123 119 115 120 109 98 85 91 120 136 138 165 213 184 191 215 223 182 208 187 129 124 131 153 162 167 173 179 182 187 195
126 125 118 118 112 116 122 120 110 117 107 114 119 114 112 108 104 104 101 112 203 161 161 209 227 205 193 199 189 169 187 175 127 140 143 152 158 164 174 184 185 188 195
127 125 126 130 127 132 135 147 123 118 113 109 111 114 112 106 109 120 148 179 188 199 196 208 255 251 215 211 176 164 153 149 130 142 154 160 158 165 173 181 187 190 195
131 131 133 135 134 136 131 132 113 104 110 108 114 119 115 103 121 141 163 169 186 201 215 184 201 272 271 237 166 163 150 159 163 166 159 160 163 165 175 181 183 186 190
135 134 136 132 135 140 141 138 114 98 93 107 112 120 124 121 140 156 145 183 184 198 211 200 144 212 275 253 187 165 164 179 185 182 172 165 164 166 168 172 181 188 194
140 140 145 143 142 146 144 134 127 122 133 130 118 121 118 128 128 167 169 217 195 163 89 41 39 337 320 305 284 146 168 180 179 182 183 172 161 167 173 168 175 188 199
145 148 153 154 153 151 151 161 154 150 153 149 151 133 133 140 141 160 338 77 254 128 171 192 73 318 284 225 313 236 206 191 186 178 175 170 153 161 158 163 171 176 181
154 154 160 163 161 158 157 160 157 155 160 161 139 126 145 157 165 171 185 228 286 106 72 18 354 296 278 183 250 275 242 149 247 176 154 158 158 155 158 174 179 165 170
160 162 162 160 165 167 164 165 156 148 156 144 141 138 160 161 160 255 147 204 284 167 128 187 230 256 288 298 278 292 311 76 340 292 148 120 129 138 153 165 156 152 163
164 161 156 159 164 166 169 172 173 165 164 167 158 155 173 172 179 195 147 163 288 34 73 269 105 274 283 299 305 290 234 139 184 188 343 99 128 136 150 164 130 132 132
164 160 156 157 161 165 171 175 181 168 169 152 151 160 176 173 174 174 156 176 188 155 71 356 20 353 336 314 303 295 280 245 220 178 215 303 69 113 137 129 126 122 116
163 159 157 157 162 167 175 179 176 177 175 156 168 172 190 183 167 177 163 167 175 201 137 253 310 306 317 312 308 305 297 293 270 193 196 211 186 216 153 138 135 132 130